Regional Weather Roundup
Issued by NWS Northern Indiana

Home | Current Version | Previous Version | Graphics & Text | Print | Product List | Glossary On
Versions: 1 2 3 4 5 6 7 8 9 10 11 12 13 14 15 16 17 18 19 20 21 22 23 24 25 26 27 28 29 30 31 32 33 34 35 36 37 38 39 40 41 42 43 44 45 46 47 48 49 50
000
ASUS43 KIWX 221700
RWRIWX

KIWX WEATHER ROUNDUP
NATIONAL WEATHER SERVICE NORTHERN INDIANA
100 PM EDT THU JUN 22 2017

NOTE: "FAIR" INDICATES FEW OR NO CLOUDS BELOW 12,000 FEET WITH NO
SIGNIFICANT WEATHER AND/OR OBSTRUCTIONS TO VISIBILITY.

* THESE STATIONS ARE NOT UNDER NWS QUALITY CONTROL. THEY ALSO MAY NOT
  REPORT WEATHER SUCH AS PRECIPITATION OR FOG.

INZ001>027-221800-
NORTHERN INDIANA

CITY           SKY/WX    TMP DP  RH WIND       PRES   REMARKS
GARY*          PTSUNNY   84  66  54 S9        29.85F
MICHIGAN CITY* MOSUNNY   82  68  61 S13G21    29.86F
KNOX*          CLOUDY    79  59  50 S8        29.89F
SOUTH BEND     MOSUNNY   83  69  62 S17G23    29.88F
ELKHART*       SUNNY     84  68  58 SW12      29.88F
GOSHEN         CLOUDY    81  67  62 S16       29.90F
MONTICELLO*    PTSUNNY   81  70  69 S13G20    29.90F
FORT WAYNE     CLOUDY    79  70  74 S8        29.94F
PERU/GRISSOM   CLOUDY    82  72  71 SW14      29.92F

$$
INZ028>050-221800-
CENTRAL INDIANA

CITY           SKY/WX    TMP DP  RH WIND       PRES   REMARKS
LAFAYETTE      PTSUNNY   81  72  74 SW9       29.90F
KOKOMO*        PTSUNNY   83  71  67 SW14      29.94F
MUNCIE*        CLOUDY    83  70  64 SW10      29.96F
INDIANAPOLIS   CLOUDY    82  71  69 S18       29.95F

$$
MIZ043>046-050>051-056>058-064>065-071>073-077>080-221800-
SOUTHWEST LOWER MICHIGAN

CITY           SKY/WX    TMP DP  RH WIND       PRES   REMARKS
BATTLE CREEK   CLOUDY    84  68  58 SW15      29.87F
BENTON HARBOR  SUNNY     86  64  47 S13       29.84F
COLDWATER*     CLOUDY    79  67  66 S7        29.90F
HILLSDALE*     MOSUNNY   75  68  78 S7        29.91F
HOLLAND        MOSUNNY   82  66  58 SW18G35   29.82F
GRAND RAPIDS   PTSUNNY   83  68  60 S18       29.80F
KALAMAZOO      CLOUDY    84  65  52 S15       29.86F
STURGIS*       MOSUNNY   82  70  66 SW14G20   29.89F
THREE RIVERS*  FAIR      81  67  62 SW10      29.88F

$$
OHZ001>008-015>018-024>025-221800-
NORTHWEST OHIO

CITY           SKY/WX    TMP DP  RH WIND       PRES   REMARKS
DEFIANCE       CLOUDY    78  68  71 S14       29.93F
FINDLAY        CLOUDY    82  68  62 W9        29.96S
TOLEDO EXPRESS CLOUDY    76  70  82 S8        29.92F
TOLEDO METCALF CLOUDY    80  69  69 SW13      29.94F
LIMA           CLOUDY    84  69  60 SW12      29.96F

$$
AND FOR LAKE MICHIGAN COASTAL AND OPEN LAKE BUOY OBSERVATIONS

STATION/POSITION TEMP    WIND        PRES    VSBY  WAVE
                 AIR SEA DIR/SP/G                  HT/PER
                 (F)     (DEG/KT/KT) (MB)    (MI)  (FT/S)
CALUMET HARBOR    83     180/ 12/ 18 1009.6
MICHIGAN CITY     80     190/ 16/ 19   N/A
BURNS HARBOR      80     200/ 16/ 21 1011.2F
SOUTH LAKE BUOY   67 61  190/ 19/ 23 1008.4          2/ 4
4 MI NW BRIDGMAN  73 69  220/  6/  8 1010.3F         2/ 3
MICHIGAN CITY     76 68  190/ 12/ 16   N/A           1/ 2

$$
&&




USA.gov is the U.S. government's official web portal to all federal, state and local government web resources and services.